TimePST,TemperatureF,Dew PointF,Humidity,Sea Level PressureIn,VisibilityMPH,Wind Direction,Wind SpeedMPH,Gust SpeedMPH,PrecipitationIn,Events,Conditions,WindDirDegrees,DateUTC
12:53 AM,44.1,43.0,96,30.58,6.0,North,3.5,-,N/A,,Overcast,350,2013-02-15 08:53:00
1:26 AM,44.6,42.8,93,30.57,4.0,North,3.5,-,N/A,,Overcast,10,2013-02-15 09:26:00
1:53 AM,44.1,43.0,96,30.57,3.0,North,3.5,-,N/A,,Overcast,360,2013-02-15 09:53:00
2:20 AM,44.6,42.8,93,30.56,5.0,North,3.5,-,N/A,,Overcast,360,2013-02-15 10:20:00
2:53 AM,43.0,43.0,100,30.55,6.0,Calm,Calm,-,N/A,,Overcast,0,2013-02-15 10:53:00
3:08 AM,42.8,42.8,100,30.54,7.0,Calm,Calm,-,N/A,,Overcast,0,2013-02-15 11:08:00
3:33 AM,42.8,42.8,100,30.54,8.0,Calm,Calm,-,N/A,,Overcast,0,2013-02-15 11:33:00
3:53 AM,43.0,42.1,97,30.54,7.0,Calm,Calm,-,N/A,,Overcast,0,2013-02-15 11:53:00
4:03 AM,42.8,42.8,100,30.53,6.0,North,3.5,-,N/A,,Overcast,350,2013-02-15 12:03:00
4:12 AM,42.8,42.8,100,30.53,5.0,Calm,Calm,-,N/A,,Overcast,0,2013-02-15 12:12:00
4:53 AM,43.0,42.1,97,30.53,5.0,WNW,3.5,-,N/A,,Overcast,290,2013-02-15 12:53:00
5:53 AM,43.0,42.1,97,30.51,5.0,North,3.5,-,N/A,,Overcast,350,2013-02-15 13:53:00
6:53 AM,43.0,42.1,97,30.51,4.0,Calm,Calm,-,N/A,,Overcast,0,2013-02-15 14:53:00
7:53 AM,43.0,42.1,97,30.49,3.0,North,4.6,-,N/A,,Overcast,350,2013-02-15 15:53:00
8:53 AM,44.1,43.0,96,30.49,4.0,NW,3.5,-,N/A,,Overcast,310,2013-02-15 16:53:00
9:53 AM,45.0,43.0,93,30.48,6.0,North,6.9,-,N/A,,Overcast,350,2013-02-15 17:53:00
10:53 AM,46.9,42.1,83,30.46,10.0,North,5.8,-,N/A,,Overcast,360,2013-02-15 18:53:00
11:34 AM,48.2,39.2,71,30.44,10.0,North,4.6,-,N/A,,Scattered Clouds,10,2013-02-15 19:34:00
11:53 AM,48.0,42.1,80,30.44,10.0,Variable,3.5,-,N/A,,Mostly Cloudy,0,2013-02-15 19:53:00
12:30 PM,46.4,39.2,76,30.42,10.0,North,5.8,-,N/A,,Partly Cloudy,360,2013-02-15 20:30:00
12:53 PM,48.9,41.0,74,30.41,10.0,North,8.1,-,N/A,,Clear,350,2013-02-15 20:53:00
1:53 PM,48.0,39.9,74,30.37,10.0,North,8.1,-,N/A,,Clear,350,2013-02-15 21:53:00
2:53 PM,46.9,39.9,77,30.35,10.0,Variable,6.9,-,N/A,,Clear,0,2013-02-15 22:53:00
3:53 PM,46.9,39.9,77,30.33,10.0,North,6.9,-,N/A,,Clear,350,2013-02-15 23:53:00
4:53 PM,45.0,39.0,80,30.30,10.0,Variable,4.6,-,N/A,,Clear,0,2013-02-16 00:53:00
5:53 PM,43.0,39.9,89,30.28,10.0,WNW,3.5,-,N/A,,Clear,290,2013-02-16 01:53:00
6:53 PM,42.1,39.0,89,30.27,10.0,West,3.5,-,N/A,,Clear,280,2013-02-16 02:53:00
7:53 PM,43.0,39.9,89,30.24,10.0,Calm,Calm,-,N/A,,Clear,0,2013-02-16 03:53:00
8:53 PM,42.1,39.9,92,30.24,10.0,NNW,3.5,-,N/A,,Clear,330,2013-02-16 04:53:00
9:53 PM,41.0,39.9,96,30.22,10.0,Calm,Calm,-,N/A,,Clear,0,2013-02-16 05:53:00
10:46 PM,39.2,39.2,100,30.20,10.0,West,3.5,-,N/A,,Partly Cloudy,280,2013-02-16 06:46:00
10:53 PM,41.0,39.0,93,30.20,10.0,Calm,Calm,-,N/A,,Partly Cloudy,0,2013-02-16 06:53:00
11:53 PM,41.0,39.0,93,30.19,10.0,West,3.5,-,N/A,,Scattered Clouds,280,2013-02-16 07:53:00